Location: Marcé
(47.5801°N, 0.3280°W)
Time: 12:26:30
(UTC+01:00)

Vanguard 3 - Pass Details

Date: 02 December 2021
Orbit: 508 x 3260 km, 33.3° (Epoch: 17 January)

Event Time Altitude Azimuth Distance (km) Brightness Sun altitude
Exits shadow 05:36:50 12° 227° (SW) 6,004 11.2 -28.3°
Maximum altitude 05:53:23 43° 166° (SSE) 3,697 10.5 -25.5°
Drops below altitude 10° 06:06:34 10° 102° (ESE) 4,731 12.1 -23.3°
Sets 06:09:52 0° 96° (E) 5,400 12.8 -22.8°
